This demonstration page uses our WeatherBlox Daily Observations layout. Learn more.

Left ArrowRight Arrow

Hourly Observations for May 30, 2019

Temp ( °F °C ) Dew Point ( °F °C ) Humidity (%) Winds ( mph kmh ) Pressure ( in mb ) Visibility ( mi km ) Precip ( " mm )
12:15 am 00:15 Partly Cloudy 62 16.7 59 15 90 90 SSW 7 11 29.84 1010 10 16 0.00 0.00
12:45 am 00:45 Mostly Cloudy 63 17.2 59 15 87 87 SW 7 11 29.85 1011 10 16 0.00 0.00
12:52 am 00:52 Mostly Cloudy 63 17.2 59 15 87 87 SW 8 13 29.84 1010 10 16 0.00 0.00
1:28 am 01:28 Mostly Cloudy 62 16.7 59 15 90 90 SSW 8 13 29.85 1011 10 16 0.00 0.00
1:52 am 01:52 Partly Cloudy 61 16.1 59 15 93 93 SW 7 11 29.85 1011 10 16 0.00 0.00
2:52 am 02:52 Mostly Cloudy 62 16.7 58 14.4 86 86 WSW 7 11 29.83 1010 10 16 0.00 0.00
3:41 am 03:41 Mostly Cloudy 61 16.1 58 14.4 90 90 WSW 7 11 29.83 1010 10 16 0.00 0.00
3:48 am 03:48 Mostly Cloudy 61 16 57 14 88 88 WSW 7 11 29.83 1010 10 16 0.00 0.00
3:52 am 03:52 Cloudy 61 16.1 58 14.4 90 90 WSW 8 13 29.83 1010 10 16 0.00 0.00
4:52 am 04:52 Cloudy 61 16.1 59 15 93 93 W 9 15 29.83 1010 10 16 0.00 0.00
5:52 am 05:52 Cloudy 61 16.1 59 15 93 93 W 7 11 29.83 1010 10 16 0.00 0.00
6:52 am 06:52 Cloudy 61 16.1 59 15 93 93 W 6 9 29.86 1011 10 16 0.00 0.00
7:23 am 07:23 Partly Cloudy 62 16.7 59 15 90 90 W 6 9 29.87 1011 10 16 0.00 0.00
7:52 am 07:52 Mostly Cloudy 63 17.2 58 14.4 84 84 W 9 15 29.88 1012 10 16 0.00 0.00
8:52 am 08:52 Mostly Sunny 65 18.3 56 13.3 73 73 NW 8 13 29.88 1012 10 16 0.00 0.00
9:52 am 09:52 Sunny 67 19.4 54 12.2 63 63 W 10 17 29.89 1012 10 16 0.00 0.00
10:52 am 10:52 Mostly Sunny 69 20.6 53 11.7 57 57 W 10 17 29.90 1013 10 16 0.00 0.00
11:52 am 11:52 Mostly Sunny 70 21.1 52 11.1 53 53 W 15 24 29.90 1013 10 16 0.00 0.00
12:52 pm 12:52 Sunny 73 22.8 53 11.7 50 50 W 14 22 29.90 1012 10 16 0.00 0.00
1:52 pm 13:52 Partly Cloudy 73 22.8 54 12.2 51 51 W 15 24 29.89 1012 10 16 0.00 0.00
2:52 pm 14:52 Partly Cloudy 75 23.9 53 11.7 46 46 W 9 15 29.89 1012 10 16 0.00 0.00
3:52 pm 15:52 Partly Cloudy 76 24.4 53 11.7 45 45 W 17 28 29.88 1012 10 16 0.00 0.00
4:52 pm 16:52 Sunny 76 24.4 52 11.1 43 43 W 17 28 29.88 1012 10 16 0.00 0.00
5:52 pm 17:52 Sunny 75 23.9 52 11.1 45 45 W 15 24 29.87 1012 10 16 0.00 0.00
6:52 pm 18:52 Sunny 74 23.3 52 11.1 46 46 WSW 12 19 29.86 1011 10 16 0.00 0.00
7:52 pm 19:52 Sunny 71 21.7 55 12.8 57 57 SW 7 11 29.86 1011 10 16 0.00 0.00
8:52 pm 20:52 Clear 66 18.9 55 12.8 68 68 SSW 9 15 29.87 1011 10 16 0.00 0.00
10:52 pm 22:52 Mostly Cloudy 66 18.9 54 12.2 65 65 SSW 10 17 29.89 1012 10 16 0.00 0.00
11:52 pm 23:52 Mostly Clear 65 18.3 53 11.7 66 66 SW 9 15 29.88 1012 10 16 0.00 0.00

Powered by AerisWeather